Year,Month,Day,Hour,Minute,Value (Times are PST for temperature in C)
2014,03,17,00,00,4.70
2014,03,17,00,01,4.70
2014,03,17,00,02,4.70
2014,03,17,00,03,4.70
2014,03,17,00,04,4.70
2014,03,17,00,05,4.60
2014,03,17,00,06,4.60
2014,03,17,00,07,4.60
2014,03,17,00,08,4.60
2014,03,17,00,09,4.60
2014,03,17,00,10,4.50
2014,03,17,00,11,4.50
2014,03,17,00,12,4.50
2014,03,17,00,13,4.40
2014,03,17,00,14,4.40
2014,03,17,00,15,4.40
2014,03,17,00,16,4.40
2014,03,17,00,17,4.40
2014,03,17,00,18,4.40
2014,03,17,00,19,4.30
2014,03,17,00,20,4.30
2014,03,17,00,21,4.30
2014,03,17,00,22,4.30
2014,03,17,00,23,4.30
2014,03,17,00,24,4.30
2014,03,17,00,25,4.20
2014,03,17,00,26,4.20
2014,03,17,00,27,4.20
2014,03,17,00,28,4.20
2014,03,17,00,29,4.20
2014,03,17,00,30,4.20
2014,03,17,00,31,4.20
2014,03,17,00,32,4.30
2014,03,17,00,33,4.30
2014,03,17,00,34,4.30
2014,03,17,00,35,4.30
2014,03,17,00,36,4.30
2014,03,17,00,37,4.30
2014,03,17,00,38,4.30
2014,03,17,00,39,4.20
2014,03,17,00,40,4.20
2014,03,17,00,41,4.20
2014,03,17,00,42,4.20
2014,03,17,00,43,4.20
2014,03,17,00,44,4.20
2014,03,17,00,45,4.20
2014,03,17,00,46,4.20
2014,03,17,00,47,4.20
2014,03,17,00,48,4.20
2014,03,17,00,49,4.20
2014,03,17,00,50,4.20
2014,03,17,00,51,4.20
2014,03,17,00,52,4.30
2014,03,17,00,53,4.30
2014,03,17,00,54,4.30
2014,03,17,00,55,4.30
2014,03,17,00,56,4.30
2014,03,17,00,57,4.30
2014,03,17,00,58,4.30
2014,03,17,00,59,4.30
2014,03,17,01,00,4.30
2014,03,17,01,01,4.30
2014,03,17,01,02,4.30
2014,03,17,01,03,4.30
2014,03,17,01,04,4.30
2014,03,17,01,05,4.30
2014,03,17,01,06,4.20
2014,03,17,01,07,4.20
2014,03,17,01,08,4.20
2014,03,17,01,09,4.20
2014,03,17,01,10,4.20
2014,03,17,01,11,4.20
2014,03,17,01,12,4.20
2014,03,17,01,13,4.20
2014,03,17,01,14,4.20
2014,03,17,01,15,4.20
2014,03,17,01,16,4.20
2014,03,17,01,17,4.20
2014,03,17,01,18,4.10
2014,03,17,01,19,4.10
2014,03,17,01,20,4.10
2014,03,17,01,21,4.10
2014,03,17,01,22,4.10
2014,03,17,01,23,4.00
2014,03,17,01,24,4.00
2014,03,17,01,25,4.00
2014,03,17,01,26,4.00
2014,03,17,01,27,3.90
2014,03,17,01,28,3.90
2014,03,17,01,29,3.80
2014,03,17,01,30,3.80
2014,03,17,01,31,3.80
2014,03,17,01,32,3.80
2014,03,17,01,33,3.80
2014,03,17,01,34,3.70
2014,03,17,01,35,3.70
2014,03,17,01,36,3.60
2014,03,17,01,37,3.60
2014,03,17,01,38,3.60
2014,03,17,01,39,3.60
2014,03,17,01,40,3.50
2014,03,17,01,41,3.50
2014,03,17,01,42,3.50
2014,03,17,01,43,3.40
2014,03,17,01,44,3.40
2014,03,17,01,45,3.40
2014,03,17,01,46,3.30
2014,03,17,01,47,3.30
2014,03,17,01,48,3.30
2014,03,17,01,49,3.30
2014,03,17,01,50,3.30
2014,03,17,01,51,3.20
2014,03,17,01,52,3.20
2014,03,17,01,53,3.20
2014,03,17,01,54,3.10
2014,03,17,01,55,3.10
2014,03,17,01,56,3.10
2014,03,17,01,57,3.10
2014,03,17,01,58,3.10
2014,03,17,01,59,3.10
2014,03,17,02,00,3.10
2014,03,17,02,01,3.00
2014,03,17,02,02,2.90
2014,03,17,02,03,2.90
2014,03,17,02,04,2.90
2014,03,17,02,05,2.90
2014,03,17,02,06,2.90
2014,03,17,02,07,2.90
2014,03,17,02,08,2.90
2014,03,17,02,09,2.80
2014,03,17,02,10,2.80
2014,03,17,02,11,2.80
2014,03,17,02,12,2.80
2014,03,17,02,13,2.80
2014,03,17,02,14,2.80
2014,03,17,02,15,2.80
2014,03,17,02,16,2.80
2014,03,17,02,17,2.80
2014,03,17,02,18,2.80
2014,03,17,02,19,2.90
2014,03,17,02,20,2.90
2014,03,17,02,21,2.90
2014,03,17,02,22,2.90
2014,03,17,02,23,2.90
2014,03,17,02,24,2.90
2014,03,17,02,25,2.90
2014,03,17,02,26,2.90
2014,03,17,02,27,2.90
2014,03,17,02,28,2.90
2014,03,17,02,29,2.90
2014,03,17,02,30,2.90
2014,03,17,02,31,3.00
2014,03,17,02,32,3.10
2014,03,17,02,33,3.10
2014,03,17,02,34,3.10
2014,03,17,02,35,3.10
2014,03,17,02,36,3.10
2014,03,17,02,37,3.10
2014,03,17,02,38,3.10
2014,03,17,02,39,3.10
2014,03,17,02,40,3.10
2014,03,17,02,41,3.10
2014,03,17,02,42,3.10
2014,03,17,02,43,3.10
2014,03,17,02,44,3.10
2014,03,17,02,45,3.10
2014,03,17,02,46,3.10
2014,03,17,02,47,3.10
2014,03,17,02,48,3.10
2014,03,17,02,49,3.10
2014,03,17,02,50,3.10
2014,03,17,02,51,3.00
2014,03,17,02,52,2.90
2014,03,17,02,53,2.90
2014,03,17,02,54,2.90
2014,03,17,02,55,2.90
2014,03,17,02,56,2.90
2014,03,17,02,57,2.90
2014,03,17,02,58,2.90
2014,03,17,02,59,2.90
2014,03,17,03,00,2.90
2014,03,17,03,01,2.90
2014,03,17,03,02,2.90
2014,03,17,03,03,2.80
2014,03,17,03,04,2.80
2014,03,17,03,05,2.80
2014,03,17,03,06,2.80
2014,03,17,03,07,2.80
2014,03,17,03,08,2.80
2014,03,17,03,09,2.70
2014,03,17,03,10,2.70
2014,03,17,03,11,2.70
2014,03,17,03,12,2.70
2014,03,17,03,13,2.70
2014,03,17,03,14,2.70
2014,03,17,03,15,2.70
2014,03,17,03,16,2.70
2014,03,17,03,17,2.60
2014,03,17,03,18,2.60
2014,03,17,03,19,2.60
2014,03,17,03,20,2.60
2014,03,17,03,21,2.60
2014,03,17,03,22,2.60
2014,03,17,03,23,2.50
2014,03,17,03,24,2.50
2014,03,17,03,25,2.50
2014,03,17,03,26,2.50
2014,03,17,03,27,2.50
2014,03,17,03,28,2.50
2014,03,17,03,29,2.50
2014,03,17,03,30,2.40
2014,03,17,03,31,2.40
2014,03,17,03,32,2.40
2014,03,17,03,33,2.40
2014,03,17,03,34,2.40
2014,03,17,03,35,2.40
2014,03,17,03,36,2.40
2014,03,17,03,37,2.40
2014,03,17,03,38,2.30
2014,03,17,03,39,2.30
2014,03,17,03,40,2.30
2014,03,17,03,41,2.30
2014,03,17,03,42,2.30
2014,03,17,03,43,2.20
2014,03,17,03,44,2.20
2014,03,17,03,45,2.20
2014,03,17,03,46,2.20
2014,03,17,03,47,2.20
2014,03,17,03,48,2.20
2014,03,17,03,49,2.20
2014,03,17,03,50,2.20
2014,03,17,03,51,2.10
2014,03,17,03,52,2.10
2014,03,17,03,53,2.10
2014,03,17,03,54,2.10
2014,03,17,03,55,2.10
2014,03,17,03,56,2.10
2014,03,17,03,57,2.10
2014,03,17,03,58,2.10
2014,03,17,03,59,2.00
2014,03,17,04,00,2.00
2014,03,17,04,01,2.00
2014,03,17,04,02,2.00
2014,03,17,04,03,2.00
2014,03,17,04,04,2.00
2014,03,17,04,05,2.00
2014,03,17,04,06,2.00
2014,03,17,04,07,2.00
2014,03,17,04,08,2.00
2014,03,17,04,09,2.00
2014,03,17,04,10,2.00
2014,03,17,04,11,2.00
2014,03,17,04,12,2.00
2014,03,17,04,13,1.90
2014,03,17,04,14,1.90
2014,03,17,04,15,1.90
2014,03,17,04,16,1.90
2014,03,17,04,17,1.80
2014,03,17,04,18,1.80
2014,03,17,04,19,1.80
2014,03,17,04,20,1.80
2014,03,17,04,21,1.80
2014,03,17,04,22,1.80
2014,03,17,04,23,1.80
2014,03,17,04,24,1.80
2014,03,17,04,25,1.80
2014,03,17,04,26,1.80
2014,03,17,04,27,1.80
2014,03,17,04,28,1.80
2014,03,17,04,29,1.80
2014,03,17,04,30,1.80
2014,03,17,04,31,1.80
2014,03,17,04,32,1.80
2014,03,17,04,33,1.80
2014,03,17,04,34,1.80
2014,03,17,04,35,1.80
2014,03,17,04,36,1.80
2014,03,17,04,37,1.80
2014,03,17,04,38,1.80
2014,03,17,04,39,1.80
2014,03,17,04,40,1.80
2014,03,17,04,41,1.80
2014,03,17,04,42,1.80
2014,03,17,04,43,1.80
2014,03,17,04,44,1.80
2014,03,17,04,45,1.80
2014,03,17,04,46,1.80
2014,03,17,04,47,1.80
2014,03,17,04,48,1.80
2014,03,17,04,49,1.80
2014,03,17,04,50,1.80
2014,03,17,04,51,1.80
2014,03,17,04,52,1.80
2014,03,17,04,53,1.80
2014,03,17,04,54,1.80
2014,03,17,04,55,1.80
2014,03,17,04,56,1.80
2014,03,17,04,57,1.80
2014,03,17,04,58,1.80
2014,03,17,04,59,1.80
2014,03,17,05,00,1.80
2014,03,17,05,01,1.80
2014,03,17,05,02,1.80
2014,03,17,05,03,1.80
2014,03,17,05,04,1.80
2014,03,17,05,05,1.80
2014,03,17,05,06,1.80
2014,03,17,05,07,1.70
2014,03,17,05,08,1.70
2014,03,17,05,09,1.70
2014,03,17,05,10,1.70
2014,03,17,05,11,1.60
2014,03,17,05,12,1.60
2014,03,17,05,13,1.60
2014,03,17,05,14,1.60
2014,03,17,05,15,1.60
2014,03,17,05,16,1.50
2014,03,17,05,17,1.50
2014,03,17,05,18,1.50
2014,03,17,05,19,1.50
2014,03,17,05,20,1.50
2014,03,17,05,21,1.50
2014,03,17,05,22,1.40
2014,03,17,05,23,1.40
2014,03,17,05,24,1.50
2014,03,17,05,25,1.50
2014,03,17,05,26,1.50
2014,03,17,05,27,1.40
2014,03,17,05,28,1.40
2014,03,17,05,29,1.40
2014,03,17,05,30,1.40
2014,03,17,05,31,1.40
2014,03,17,05,32,1.40
2014,03,17,05,33,1.40
2014,03,17,05,34,1.40
2014,03,17,05,35,1.40
2014,03,17,05,36,1.40
2014,03,17,05,37,1.40
2014,03,17,05,38,1.40
2014,03,17,05,39,1.30
2014,03,17,05,40,1.30
2014,03,17,05,41,1.30
2014,03,17,05,42,1.30
2014,03,17,05,43,1.30
2014,03,17,05,44,1.30
2014,03,17,05,45,1.30
2014,03,17,05,46,1.30
2014,03,17,05,47,1.30
2014,03,17,05,48,1.30
2014,03,17,05,49,1.30
2014,03,17,05,50,1.30
2014,03,17,05,51,1.30
2014,03,17,05,52,1.30
2014,03,17,05,53,1.30
2014,03,17,05,54,1.30
2014,03,17,05,55,1.30
2014,03,17,05,56,1.30
2014,03,17,05,57,1.30
2014,03,17,05,58,1.30
2014,03,17,05,59,1.30
2014,03,17,06,00,1.30
2014,03,17,06,01,1.30
2014,03,17,06,02,1.30
2014,03,17,06,03,1.30
2014,03,17,06,04,1.30
2014,03,17,06,05,1.30
2014,03,17,06,06,1.30
2014,03,17,06,07,1.30
2014,03,17,06,08,1.30
2014,03,17,06,09,1.30
2014,03,17,06,10,1.30
2014,03,17,06,11,1.30
2014,03,17,06,12,1.30
2014,03,17,06,13,1.30
2014,03,17,06,14,1.30
2014,03,17,06,15,1.30
2014,03,17,06,16,1.30
2014,03,17,06,17,1.30
2014,03,17,06,18,1.30
2014,03,17,06,19,1.20
2014,03,17,06,20,1.20
2014,03,17,06,21,1.20
2014,03,17,06,22,1.20
2014,03,17,06,23,1.20
2014,03,17,06,24,1.20
2014,03,17,06,25,1.20
2014,03,17,06,26,1.10
2014,03,17,06,27,1.10
2014,03,17,06,28,1.10
2014,03,17,06,29,1.00
2014,03,17,06,30,1.00
2014,03,17,06,31,1.00
2014,03,17,06,32,1.00
2014,03,17,06,33,1.00
2014,03,17,06,34,1.00
2014,03,17,06,35,1.00
2014,03,17,06,36,1.00
2014,03,17,06,37,1.00
2014,03,17,06,38,1.00
2014,03,17,06,39,1.00
2014,03,17,06,40,1.00
2014,03,17,06,41,1.00
2014,03,17,06,42,0.90
2014,03,17,06,43,0.90
2014,03,17,06,44,0.90
2014,03,17,06,45,0.90
2014,03,17,06,46,0.90
2014,03,17,06,47,0.90
2014,03,17,06,48,0.90
2014,03,17,06,49,0.90
2014,03,17,06,50,0.90
2014,03,17,06,51,0.90
2014,03,17,06,52,0.90
2014,03,17,06,53,0.90
2014,03,17,06,54,1.00
2014,03,17,06,55,1.00
2014,03,17,06,56,1.00
2014,03,17,06,57,1.00
2014,03,17,06,58,1.00
2014,03,17,06,59,1.00
2014,03,17,07,00,1.00
2014,03,17,07,01,1.00
2014,03,17,07,02,1.00
2014,03,17,07,03,1.00
2014,03,17,07,04,1.00
2014,03,17,07,05,1.00
2014,03,17,07,06,0.90
2014,03,17,07,07,0.90
2014,03,17,07,08,0.90
2014,03,17,07,09,0.90
2014,03,17,07,10,0.90
2014,03,17,07,11,0.80
2014,03,17,07,12,0.80
2014,03,17,07,13,0.80
2014,03,17,07,14,0.80
2014,03,17,07,15,0.80
2014,03,17,07,16,0.80
2014,03,17,07,17,0.80
2014,03,17,07,18,0.80
2014,03,17,07,19,0.80
2014,03,17,07,20,0.80
2014,03,17,07,21,0.80
2014,03,17,07,22,0.70
2014,03,17,07,23,0.70
2014,03,17,07,24,0.70
2014,03,17,07,25,0.70
2014,03,17,07,26,0.70
2014,03,17,07,27,0.70
2014,03,17,07,28,0.70
2014,03,17,07,29,0.70
2014,03,17,07,30,0.70
2014,03,17,07,31,0.70
2014,03,17,07,32,0.70
2014,03,17,07,33,0.70
2014,03,17,07,34,0.70
2014,03,17,07,35,0.70
2014,03,17,07,36,0.70
2014,03,17,07,37,0.70
2014,03,17,07,38,0.70
2014,03,17,07,39,0.60
2014,03,17,07,40,0.60
2014,03,17,07,41,0.60
2014,03,17,07,42,0.60
2014,03,17,07,43,0.60
2014,03,17,07,44,0.60
2014,03,17,07,45,0.60
2014,03,17,07,46,0.60
2014,03,17,07,47,0.60
2014,03,17,07,48,0.60
2014,03,17,07,49,0.60
2014,03,17,07,50,0.60
2014,03,17,07,51,0.60
2014,03,17,07,52,0.60
2014,03,17,07,53,0.70
2014,03,17,07,54,0.70
2014,03,17,07,55,0.70
2014,03,17,07,56,0.70
2014,03,17,07,57,0.70
2014,03,17,07,58,0.70
2014,03,17,07,59,0.70
2014,03,17,08,00,0.80
2014,03,17,08,01,0.80
2014,03,17,08,02,0.80
2014,03,17,08,03,0.80
2014,03,17,08,04,0.80
2014,03,17,08,05,0.80
2014,03,17,08,06,0.90
2014,03,17,08,07,1.00
2014,03,17,08,08,1.00
2014,03,17,08,09,1.00
2014,03,17,08,10,1.00
2014,03,17,08,11,1.00
2014,03,17,08,12,1.10
2014,03,17,08,13,1.00
2014,03,17,08,14,1.10
2014,03,17,08,15,1.10
2014,03,17,08,16,1.10
2014,03,17,08,17,1.20
2014,03,17,08,18,1.20
2014,03,17,08,19,1.20
2014,03,17,08,20,1.20
2014,03,17,08,21,1.20
2014,03,17,08,22,1.30
2014,03,17,08,23,1.30
2014,03,17,08,24,1.40
2014,03,17,08,25,1.50
2014,03,17,08,26,1.50
2014,03,17,08,27,1.60
2014,03,17,08,28,1.70
2014,03,17,08,29,1.70
2014,03,17,08,30,1.80
2014,03,17,08,31,1.90
2014,03,17,08,32,2.00
2014,03,17,08,33,2.00
2014,03,17,08,34,2.10
2014,03,17,08,35,2.20
2014,03,17,08,36,2.20
2014,03,17,08,37,2.30
2014,03,17,08,38,2.40
2014,03,17,08,39,2.50
2014,03,17,08,40,2.50
2014,03,17,08,41,2.60
2014,03,17,08,42,2.70
2014,03,17,08,43,2.80
2014,03,17,08,44,2.90
2014,03,17,08,45,2.90
2014,03,17,08,46,3.00
2014,03,17,08,47,3.10
2014,03,17,08,48,3.20
2014,03,17,08,49,3.30
2014,03,17,08,50,3.40
2014,03,17,08,51,3.50
2014,03,17,08,52,3.50
2014,03,17,08,53,3.60
2014,03,17,08,54,3.70
2014,03,17,08,55,3.80
2014,03,17,08,56,3.80
2014,03,17,08,57,3.90
2014,03,17,08,58,3.90
2014,03,17,08,59,4.00
2014,03,17,09,00,4.00
2014,03,17,09,01,4.10
2014,03,17,09,02,4.20
2014,03,17,09,03,4.20
2014,03,17,09,04,4.20
2014,03,17,09,05,4.30
2014,03,17,09,06,4.40
2014,03,17,09,07,4.40
2014,03,17,09,08,4.40
2014,03,17,09,09,4.50
2014,03,17,09,10,4.50
2014,03,17,09,11,4.60
2014,03,17,09,12,4.60
2014,03,17,09,13,4.60
2014,03,17,09,14,4.70
2014,03,17,09,15,4.80
2014,03,17,09,16,4.90
2014,03,17,09,17,5.00
2014,03,17,09,18,5.10
2014,03,17,09,19,5.10
2014,03,17,09,20,5.20
2014,03,17,09,21,5.30
2014,03,17,09,22,5.30
2014,03,17,09,23,5.30
2014,03,17,09,24,5.40
2014,03,17,09,25,5.50
2014,03,17,09,26,5.60
2014,03,17,09,27,5.70
2014,03,17,09,28,5.70
2014,03,17,09,29,5.80
2014,03,17,09,30,5.90
2014,03,17,09,31,6.00
2014,03,17,09,32,6.00
2014,03,17,09,33,6.10
2014,03,17,09,34,6.20
2014,03,17,09,35,6.20
2014,03,17,09,36,6.30
2014,03,17,09,37,6.30
2014,03,17,09,38,6.30
2014,03,17,09,39,6.40
2014,03,17,09,40,6.40
2014,03,17,09,41,6.40
2014,03,17,09,42,6.40
2014,03,17,09,43,6.40
2014,03,17,09,44,6.40
2014,03,17,09,45,6.40
2014,03,17,09,46,6.50
2014,03,17,09,47,6.40
2014,03,17,09,48,6.60
2014,03,17,09,49,6.60
2014,03,17,09,50,6.60
2014,03,17,09,51,6.60
2014,03,17,09,52,6.60
2014,03,17,09,53,6.60
2014,03,17,09,54,6.60
2014,03,17,09,55,6.60
2014,03,17,09,56,6.60
2014,03,17,09,57,6.60
2014,03,17,09,58,6.60
2014,03,17,09,59,6.60
2014,03,17,10,00,6.60
2014,03,17,10,01,6.70
2014,03,17,10,02,6.80
2014,03,17,10,03,6.80
2014,03,17,10,04,6.80
2014,03,17,10,05,6.80
2014,03,17,10,06,6.80
2014,03,17,10,07,6.90
2014,03,17,10,08,6.90
2014,03,17,10,09,6.90
2014,03,17,10,10,6.90
2014,03,17,10,11,6.90
2014,03,17,10,12,7.00
2014,03,17,10,13,7.00
2014,03,17,10,14,7.00
2014,03,17,10,15,7.00
2014,03,17,10,16,7.10
2014,03,17,10,17,7.10
2014,03,17,10,18,7.10
2014,03,17,10,19,7.10
2014,03,17,10,20,7.10
2014,03,17,10,21,7.20
2014,03,17,10,22,7.30
2014,03,17,10,23,7.30
2014,03,17,10,24,7.30
2014,03,17,10,25,7.30
2014,03,17,10,26,7.30
2014,03,17,10,27,7.30
2014,03,17,10,28,7.30
2014,03,17,10,29,7.30
2014,03,17,10,30,7.30
2014,03,17,10,31,7.40
2014,03,17,10,32,7.40
2014,03,17,10,33,7.50
2014,03,17,10,34,7.50
2014,03,17,10,35,7.50
2014,03,17,10,36,7.50
2014,03,17,10,37,7.60
2014,03,17,10,38,7.60
2014,03,17,10,39,7.60
2014,03,17,10,40,7.70
2014,03,17,10,41,7.70
2014,03,17,10,42,7.80
2014,03,17,10,43,7.80
2014,03,17,10,44,7.80
2014,03,17,10,45,7.80
2014,03,17,10,46,7.90
2014,03,17,10,47,7.90
2014,03,17,10,48,8.00
2014,03,17,10,49,8.00
2014,03,17,10,50,8.10
2014,03,17,10,51,8.10
2014,03,17,10,52,8.00
2014,03,17,10,53,8.10
2014,03,17,10,54,8.10
2014,03,17,10,55,8.10
2014,03,17,10,56,8.10
2014,03,17,10,57,8.20
2014,03,17,10,58,8.20
2014,03,17,10,59,8.20
2014,03,17,11,00,8.30
2014,03,17,11,01,8.30
2014,03,17,11,02,8.40
2014,03,17,11,03,8.50
2014,03,17,11,04,8.50
2014,03,17,11,05,8.50
2014,03,17,11,06,8.60
2014,03,17,11,07,8.60
2014,03,17,11,08,8.60
2014,03,17,11,09,8.60
2014,03,17,11,10,8.70
2014,03,17,11,11,8.70
2014,03,17,11,12,8.80
2014,03,17,11,13,8.90
2014,03,17,11,14,8.90
2014,03,17,11,15,9.00
2014,03,17,11,16,8.90
2014,03,17,11,17,8.80
2014,03,17,11,18,8.70
2014,03,17,11,19,8.70
2014,03,17,11,20,8.70
2014,03,17,11,21,8.70
2014,03,17,11,22,8.70
2014,03,17,11,23,8.70
2014,03,17,11,24,8.70
2014,03,17,11,25,8.80
2014,03,17,11,26,8.80
2014,03,17,11,27,8.90
2014,03,17,11,28,8.90
2014,03,17,11,29,9.00
2014,03,17,11,30,9.20
2014,03,17,11,31,9.20
2014,03,17,11,32,9.20
2014,03,17,11,33,9.20
2014,03,17,11,34,9.30
2014,03,17,11,35,9.30
2014,03,17,11,36,9.30
2014,03,17,11,37,9.40
2014,03,17,11,38,9.40
2014,03,17,11,39,9.30
2014,03,17,11,40,9.40
2014,03,17,11,41,9.50
2014,03,17,11,42,9.50
2014,03,17,11,43,9.60
2014,03,17,11,44,9.50
2014,03,17,11,45,9.50
2014,03,17,11,46,9.50
2014,03,17,11,47,9.60
2014,03,17,11,48,9.70
2014,03,17,11,49,9.70
2014,03,17,11,50,9.70
2014,03,17,11,51,9.60
2014,03,17,11,52,9.50
2014,03,17,11,53,9.50
2014,03,17,11,54,9.50
2014,03,17,11,55,9.50
2014,03,17,11,56,9.60
2014,03,17,11,57,9.60
2014,03,17,11,58,9.50
2014,03,17,11,59,9.50
2014,03,17,12,00,9.50
2014,03,17,12,01,9.50
2014,03,17,12,02,9.40
2014,03,17,12,03,9.40
2014,03,17,12,04,9.30
2014,03,17,12,05,9.20
2014,03,17,12,06,9.20
2014,03,17,12,07,9.20
2014,03,17,12,08,9.20
2014,03,17,12,09,9.20
2014,03,17,12,10,9.10
2014,03,17,12,11,9.00
2014,03,17,12,12,9.00
2014,03,17,12,13,8.90
2014,03,17,12,14,8.90
2014,03,17,12,15,8.90
2014,03,17,12,16,8.90
2014,03,17,12,17,8.90
2014,03,17,12,18,8.80
2014,03,17,12,19,8.80
2014,03,17,12,20,8.80
2014,03,17,12,21,8.80
2014,03,17,12,22,8.80
2014,03,17,12,23,8.80
2014,03,17,12,24,8.80
2014,03,17,12,25,8.70
2014,03,17,12,26,8.70
2014,03,17,12,27,8.60
2014,03,17,12,28,8.60
2014,03,17,12,29,8.50
2014,03,17,12,30,8.40
2014,03,17,12,31,8.40
2014,03,17,12,32,8.40
2014,03,17,12,33,8.40
2014,03,17,12,34,8.50
2014,03,17,12,35,8.50
2014,03,17,12,36,8.60
2014,03,17,12,37,8.60
2014,03,17,12,38,8.60
2014,03,17,12,39,8.60
2014,03,17,12,40,8.70
2014,03,17,12,41,8.60
2014,03,17,12,42,8.50
2014,03,17,12,43,8.50
2014,03,17,12,44,8.50
2014,03,17,12,45,8.50
2014,03,17,12,46,8.60
2014,03,17,12,47,8.60
2014,03,17,12,48,8.70
2014,03,17,12,49,8.70
2014,03,17,12,50,8.60
2014,03,17,12,51,8.50
2014,03,17,12,52,8.40
2014,03,17,12,53,8.30
2014,03,17,12,54,8.30
2014,03,17,12,55,8.30
2014,03,17,12,56,8.30
2014,03,17,12,57,8.30
2014,03,17,12,58,8.30
2014,03,17,12,59,8.30
2014,03,17,13,00,8.20
2014,03,17,13,01,8.20
2014,03,17,13,02,8.20
2014,03,17,13,03,8.20
2014,03,17,13,04,8.20
2014,03,17,13,05,8.20
2014,03,17,13,06,8.20
2014,03,17,13,07,8.20
2014,03,17,13,08,8.20
2014,03,17,13,09,8.20
2014,03,17,13,10,8.20
2014,03,17,13,11,8.20
2014,03,17,13,12,8.20
2014,03,17,13,13,8.20
2014,03,17,13,14,8.20
2014,03,17,13,15,8.20
2014,03,17,13,16,8.20
2014,03,17,13,17,8.20
2014,03,17,13,18,8.20
2014,03,17,13,19,8.20
2014,03,17,13,20,8.30
2014,03,17,13,21,8.30
2014,03,17,13,22,8.30
2014,03,17,13,23,8.30
2014,03,17,13,24,8.30
2014,03,17,13,25,8.40
2014,03,17,13,26,8.40
2014,03,17,13,27,8.40
2014,03,17,13,28,8.40
2014,03,17,13,29,8.40
2014,03,17,13,30,8.50
2014,03,17,13,31,8.50
2014,03,17,13,32,8.50
2014,03,17,13,33,8.50
2014,03,17,13,34,8.50
2014,03,17,13,35,8.40
2014,03,17,13,36,8.30
2014,03,17,13,37,8.30
2014,03,17,13,38,8.40
2014,03,17,13,39,8.40
2014,03,17,13,40,8.40
2014,03,17,13,41,8.40
2014,03,17,13,42,8.40
2014,03,17,13,43,8.50
2014,03,17,13,44,8.50
2014,03,17,13,45,8.50
2014,03,17,13,46,8.60
2014,03,17,13,47,8.60
2014,03,17,13,48,8.70
2014,03,17,13,49,8.70
2014,03,17,13,50,8.70
2014,03,17,13,51,8.70
2014,03,17,13,52,8.80
2014,03,17,13,53,8.80
2014,03,17,13,54,8.80
2014,03,17,13,55,8.80
2014,03,17,13,56,8.80
2014,03,17,13,57,8.80
2014,03,17,13,58,8.90
2014,03,17,13,59,8.90
2014,03,17,14,00,8.90
2014,03,17,14,01,8.90
2014,03,17,14,02,9.00
2014,03,17,14,03,9.00
2014,03,17,14,04,9.00
2014,03,17,14,05,9.00
2014,03,17,14,06,9.00
2014,03,17,14,07,9.00
2014,03,17,14,08,9.00
2014,03,17,14,09,8.90
2014,03,17,14,10,8.90
2014,03,17,14,11,8.90
2014,03,17,14,12,8.90
2014,03,17,14,13,8.90
2014,03,17,14,14,8.90
2014,03,17,14,15,8.90
2014,03,17,14,16,8.90
2014,03,17,14,17,8.90
2014,03,17,14,18,8.80
2014,03,17,14,19,8.80
2014,03,17,14,20,8.70
2014,03,17,14,21,8.70
2014,03,17,14,22,8.70
2014,03,17,14,23,8.70
2014,03,17,14,24,8.70
2014,03,17,14,25,8.70
2014,03,17,14,26,8.60
2014,03,17,14,27,8.70
2014,03,17,14,28,8.60
2014,03,17,14,29,8.60
2014,03,17,14,30,8.60
2014,03,17,14,31,8.60
2014,03,17,14,32,8.60
2014,03,17,14,33,8.60
2014,03,17,14,34,8.60
2014,03,17,14,35,8.70
2014,03,17,14,36,8.70
2014,03,17,14,37,8.70
2014,03,17,14,38,8.70
2014,03,17,14,39,8.70
2014,03,17,14,40,8.70
2014,03,17,14,41,8.60
2014,03,17,14,42,8.60
2014,03,17,14,43,8.60
2014,03,17,14,44,8.60
2014,03,17,14,45,8.60
2014,03,17,14,46,8.60
2014,03,17,14,47,8.50
2014,03,17,14,48,8.50
2014,03,17,14,49,8.50
2014,03,17,14,50,8.50
2014,03,17,14,51,8.50
2014,03,17,14,52,8.50
2014,03,17,14,53,8.50
2014,03,17,14,54,8.50
2014,03,17,14,55,8.50
2014,03,17,14,56,8.50
2014,03,17,14,57,8.50
2014,03,17,14,58,8.50
2014,03,17,14,59,8.50
2014,03,17,15,00,8.40
2014,03,17,15,01,8.40
2014,03,17,15,02,8.40
2014,03,17,15,03,8.40
2014,03,17,15,04,8.40
2014,03,17,15,05,8.30
2014,03,17,15,06,8.30
2014,03,17,15,07,8.30
2014,03,17,15,08,8.30
2014,03,17,15,09,8.30
2014,03,17,15,10,8.30
2014,03,17,15,11,8.30
2014,03,17,15,12,8.30
2014,03,17,15,13,8.40
2014,03,17,15,14,8.40
2014,03,17,15,15,8.40
2014,03,17,15,16,8.50
2014,03,17,15,17,8.50
2014,03,17,15,18,8.50
2014,03,17,15,19,8.50
2014,03,17,15,20,8.50
2014,03,17,15,21,8.50
2014,03,17,15,22,8.60
2014,03,17,15,23,8.60
2014,03,17,15,24,8.60
2014,03,17,15,25,8.60
2014,03,17,15,26,8.60
2014,03,17,15,27,8.60
2014,03,17,15,28,8.70
2014,03,17,15,29,8.70
2014,03,17,15,30,8.70
2014,03,17,15,31,8.70
2014,03,17,15,32,8.70
2014,03,17,15,33,8.70
2014,03,17,15,34,8.70
2014,03,17,15,35,8.70
2014,03,17,15,36,8.70
2014,03,17,15,37,8.70
2014,03,17,15,38,8.60
2014,03,17,15,39,8.60
2014,03,17,15,40,8.70
2014,03,17,15,41,8.70
2014,03,17,15,42,8.60
2014,03,17,15,43,8.60
2014,03,17,15,44,8.60
2014,03,17,15,45,8.60
2014,03,17,15,46,8.60
2014,03,17,15,47,8.60
2014,03,17,15,48,8.60
2014,03,17,15,49,8.60
2014,03,17,15,50,8.60
2014,03,17,15,51,8.70
2014,03,17,15,52,8.70
2014,03,17,15,53,8.70
2014,03,17,15,54,8.70
2014,03,17,15,55,8.70
2014,03,17,15,56,8.70
2014,03,17,15,57,8.70
2014,03,17,15,58,8.70
2014,03,17,15,59,8.70
2014,03,17,16,00,8.70
2014,03,17,16,01,8.70
2014,03,17,16,02,8.80
2014,03,17,16,03,8.80
2014,03,17,16,04,8.80
2014,03,17,16,05,8.80
2014,03,17,16,06,8.70
2014,03,17,16,07,8.70
2014,03,17,16,08,8.70
2014,03,17,16,09,8.70
2014,03,17,16,10,8.70
2014,03,17,16,11,8.70
2014,03,17,16,12,8.70
2014,03,17,16,13,8.70
2014,03,17,16,14,8.70
2014,03,17,16,15,8.70
2014,03,17,16,16,8.70
2014,03,17,16,17,8.70
2014,03,17,16,18,8.70
2014,03,17,16,19,8.70
2014,03,17,16,20,8.60
2014,03,17,16,21,8.60
2014,03,17,16,22,8.60
2014,03,17,16,23,8.60
2014,03,17,16,24,8.60
2014,03,17,16,25,8.60
2014,03,17,16,26,8.70
2014,03,17,16,27,8.70
2014,03,17,16,28,8.70
2014,03,17,16,29,8.70
2014,03,17,16,30,8.70
2014,03,17,16,31,8.70
2014,03,17,16,32,8.80
2014,03,17,16,33,8.90
2014,03,17,16,34,8.90
2014,03,17,16,35,9.00
2014,03,17,16,36,9.00
2014,03,17,16,37,9.10
2014,03,17,16,38,9.20
2014,03,17,16,39,9.30
2014,03,17,16,40,9.30
2014,03,17,16,41,9.40
2014,03,17,16,42,9.40
2014,03,17,16,43,9.50
2014,03,17,16,44,9.50
2014,03,17,16,45,9.60
2014,03,17,16,46,9.70
2014,03,17,16,47,9.70
2014,03,17,16,48,9.70
2014,03,17,16,49,9.70
2014,03,17,16,50,9.70
2014,03,17,16,51,9.70
2014,03,17,16,52,9.70
2014,03,17,16,53,9.70
2014,03,17,16,54,9.70
2014,03,17,16,55,9.80
2014,03,17,16,56,9.80
2014,03,17,16,57,9.80
2014,03,17,16,58,9.70
2014,03,17,16,59,9.70
2014,03,17,17,00,9.70
2014,03,17,17,01,9.70
2014,03,17,17,02,9.60
2014,03,17,17,03,9.60
2014,03,17,17,04,9.50
2014,03,17,17,05,9.40
2014,03,17,17,06,9.40
2014,03,17,17,07,9.30
2014,03,17,17,08,9.30
2014,03,17,17,09,9.30
2014,03,17,17,10,9.20
2014,03,17,17,11,9.20
2014,03,17,17,12,9.20
2014,03,17,17,13,9.20
2014,03,17,17,14,9.20
2014,03,17,17,15,9.10
2014,03,17,17,16,9.10
2014,03,17,17,17,9.10
2014,03,17,17,18,9.10
2014,03,17,17,19,9.00
2014,03,17,17,20,9.00
2014,03,17,17,21,8.90
2014,03,17,17,22,8.90
2014,03,17,17,23,8.80
2014,03,17,17,24,8.70
2014,03,17,17,25,8.70
2014,03,17,17,26,8.70
2014,03,17,17,27,8.70
2014,03,17,17,28,8.70
2014,03,17,17,29,8.70
2014,03,17,17,30,8.70
2014,03,17,17,31,8.70
2014,03,17,17,32,8.60
2014,03,17,17,33,8.60
2014,03,17,17,34,8.60
2014,03,17,17,35,8.60
2014,03,17,17,36,8.60
2014,03,17,17,37,8.60
2014,03,17,17,38,8.60
2014,03,17,17,39,8.60
2014,03,17,17,40,8.60
2014,03,17,17,41,8.60
2014,03,17,17,42,8.60
2014,03,17,17,43,8.60
2014,03,17,17,44,8.50
2014,03,17,17,45,8.50
2014,03,17,17,46,8.50
2014,03,17,17,47,8.40
2014,03,17,17,48,8.40
2014,03,17,17,49,8.40
2014,03,17,17,50,8.40
2014,03,17,17,51,8.30
2014,03,17,17,52,8.30
2014,03,17,17,53,8.30
2014,03,17,17,54,8.30
2014,03,17,17,55,8.30
2014,03,17,17,56,8.30
2014,03,17,17,57,8.30
2014,03,17,17,58,8.30
2014,03,17,17,59,8.20
2014,03,17,18,00,8.20
2014,03,17,18,01,8.20
2014,03,17,18,02,8.20
2014,03,17,18,03,8.20
2014,03,17,18,04,8.20
2014,03,17,18,05,8.20
2014,03,17,18,06,8.20